Hourly Weather Rusiec

Today, 20 April, Tuesday

Time Temperature Precipitation Wind Pressure Humidity
00:00 +8°C° 0 mm 2 mps 747 mmHg 67%
01:00 +7°C° 0 mm 2 mps 747 mmHg 71%
02:00 +7°C° 0 mm 2 mps 747 mmHg 73%
03:00 +6°C° 0 mm 2 mps 746 mmHg 76%
04:00 +6°C° 0 mm 2 mps 746 mmHg 78%
05:00 +7°C° 0 mm 2 mps 747 mmHg 76%
06:00 +8°C° 0 mm 2 mps 747 mmHg 73%
07:00 +9°C° 0 mm 2 mps 747 mmHg 70%
08:00 +10°C° 0 mm 2 mps 747 mmHg 65%
09:00 +13°C° 0 mm 2 mps 747 mmHg 59%
10:00 +14°C° 0 mm 2 mps 746 mmHg 54%
11:00 +14°C° 0.2 mm 2 mps 746 mmHg 53%
12:00 +15°C° 0.2 mm 2 mps 746 mmHg 51%
13:00 +15°C° 0.2 mm 2 mps 745 mmHg 50%
14:00 +15°C° 0.2 mm 2 mps 745 mmHg 52%
15:00 +15°C° 0.2 mm 2 mps 745 mmHg 54%
16:00 +15°C° 0.2 mm 2 mps 745 mmHg 55%
17:00 +14°C° 0 mm 2 mps 745 mmHg 60%
18:00 +13°C° 0 mm 1 mps 745 mmHg 65%
19:00 +12°C° 0 mm 1 mps 745 mmHg 69%
20:00 +11°C° 0.1 mm 1 mps 745 mmHg 73%
21:00 +10°C° 0.1 mm 1 mps 745 mmHg 76%
22:00 +10°C° 0.1 mm 1 mps 745 mmHg 79%
23:00 +8°C° 0.3 mm 2 mps 745 mmHg 83%

Tomorrow, 21 April, Wednesday

Time Temperature Precipitation Wind Pressure Humidity
00:00 +8°C° 0.3 mm 2 mps 745 mmHg 86%
01:00 +8°C° 0.3 mm 2 mps 745 mmHg 90%
02:00 +7°C° 0.2 mm 2 mps 744 mmHg 91%
03:00 +7°C° 0.2 mm 2 mps 744 mmHg 91%
04:00 +6°C° 0.2 mm 2 mps 744 mmHg 92%
05:00 +7°C° 0 mm 3 mps 744 mmHg 88%
06:00 +8°C° 0 mm 3 mps 744 mmHg 85%
07:00 +8°C° 0 mm 4 mps 744 mmHg 82%
08:00 +11°C° 0.1 mm 4 mps 744 mmHg 74%
09:00 +12°C° 0.1 mm 5 mps 744 mmHg 66%
10:00 +14°C° 0.1 mm 5 mps 744 mmHg 59%
11:00 +14°C° 0.1 mm 6 mps 744 mmHg 54%
12:00 +15°C° 0.1 mm 6 mps 744 mmHg 49%
13:00 +16°C° 0.1 mm 6 mps 744 mmHg 44%
14:00 +15°C° 0 mm 6 mps 743 mmHg 45%
15:00 +15°C° 0 mm 5 mps 743 mmHg 46%
16:00 +14°C° 0 mm 5 mps 743 mmHg 48%
17:00 +13°C° 0 mm 4 mps 743 mmHg 52%
18:00 +12°C° 0 mm 3 mps 743 mmHg 56%
19:00 +12°C° 0 mm 2 mps 743 mmHg 60%
20:00 +12°C° 0 mm 2 mps 743 mmHg 60%
21:00 +10°C° 0 mm 3 mps 744 mmHg 60%
22:00 +10°C° 0 mm 3 mps 744 mmHg 60%
23:00 +9°C° 0 mm 3 mps 744 mmHg 67%

Day after tomorrow, 22 April, Thursday

Time Temperature Precipitation Wind Pressure Humidity
00:00 +7°C° 0 mm 4 mps 744 mmHg 73%
01:00 +6°C° 0 mm 5 mps 744 mmHg 80%
02:00 +6°C° 0 mm 4 mps 744 mmHg 84%
03:00 +5°C° 0 mm 4 mps 744 mmHg 87%
04:00 +5°C° 0 mm 4 mps 745 mmHg 91%
05:00 +4°C° 0.3 mm 4 mps 745 mmHg 86%
06:00 +3°C° 0.3 mm 5 mps 746 mmHg 81%
07:00 +3°C° 0.3 mm 5 mps 746 mmHg 76%
08:00 +3°C° 0 mm 6 mps 746 mmHg 68%
09:00 +4°C° 0 mm 6 mps 747 mmHg 60%
10:00 +5°C° 0 mm 6 mps 747 mmHg 52%
11:00 +5°C° 0 mm 7 mps 747 mmHg 49%
12:00 +6°C° 0 mm 7 mps 747 mmHg 46%
13:00 +8°C° 0 mm 7 mps 746 mmHg 43%
14:00 +6°C° 0 mm 7 mps 747 mmHg 47%
15:00 +6°C° 0 mm 7 mps 747 mmHg 51%
16:00 +5°C° 0 mm 7 mps 747 mmHg 55%
17:00 +4°C° 0 mm 6 mps 747 mmHg 59%
18:00 +3°C° 0 mm 5 mps 747 mmHg 62%
19:00 +4°C° 0 mm 4 mps 748 mmHg 66%
20:00 +3°C° 0 mm 4 mps 748 mmHg 72%
21:00 +1°C° 0 mm 4 mps 748 mmHg 78%
22:00 +1°C° 0 mm 4 mps 748 mmHg 84%
23:00 0°C° 0 mm 4 mps 748 mmHg 82%

23 April, Friday

Time Temperature Precipitation Wind Pressure Humidity
00:00 0°C° 0 mm 4 mps 748 mmHg 81%
01:00 -1°C° 0 mm 4 mps 749 mmHg 79%
02:00 -1°C° 0 mm 4 mps 749 mmHg 82%
03:00 -1°C° 0 mm 4 mps 749 mmHg 86%
04:00 -1°C° 0 mm 4 mps 749 mmHg 89%
05:00 0°C° 0 mm 5 mps 749 mmHg 85%
06:00 +1°C° 0 mm 5 mps 749 mmHg 81%
07:00 +2°C° 0 mm 5 mps 749 mmHg 77%
08:00 +3°C° 0.3 mm 6 mps 749 mmHg 72%
09:00 +4°C° 0.3 mm 7 mps 749 mmHg 67%
10:00 +5°C° 0.3 mm 8 mps 749 mmHg 62%
11:00 +5°C° 0.6 mm 8 mps 749 mmHg 65%
12:00 +3°C° 0.6 mm 9 mps 749 mmHg 68%
13:00 +3°C° 0.6 mm 9 mps 749 mmHg 71%
14:00 +4°C° 0.2 mm 8 mps 749 mmHg 72%
15:00 +2°C° 0.2 mm 8 mps 750 mmHg 73%
16:00 +3°C° 0.2 mm 7 mps 750 mmHg 74%
17:00 +3°C° 0.1 mm 6 mps 750 mmHg 74%
18:00 +2°C° 0.1 mm 5 mps 751 mmHg 75%
19:00 +1°C° 0.1 mm 4 mps 751 mmHg 75%
20:00 0°C° 0 mm 4 mps 751 mmHg 75%
21:00 +1°C° 0 mm 3 mps 752 mmHg 74%
22:00 0°C° 0 mm 3 mps 752 mmHg 74%
23:00 -1°C° 0 mm 3 mps 752 mmHg 75%

24 April, Saturday

Time Temperature Precipitation Wind Pressure Humidity
00:00 -1°C° 0 mm 3 mps 752 mmHg 76%
01:00 -2°C° 0 mm 3 mps 752 mmHg 77%
02:00 -2°C° 0 mm 3 mps 752 mmHg 75%
03:00 -1°C° 0 mm 3 mps 752 mmHg 74%
04:00 -1°C° 0 mm 3 mps 752 mmHg 73%
05:00 -1°C° 0 mm 4 mps 752 mmHg 71%
06:00 0°C° 0 mm 4 mps 752 mmHg 69%
07:00 +2°C° 0 mm 5 mps 752 mmHg 66%
08:00 +3°C° 0 mm 5 mps 751 mmHg 63%
09:00 +5°C° 0 mm 6 mps 751 mmHg 59%
10:00 +7°C° 0 mm 6 mps 751 mmHg 56%
11:00 +7°C° 0.1 mm 6 mps 751 mmHg 60%
12:00 +6°C° 0.1 mm 7 mps 750 mmHg 63%
13:00 +6°C° 0.1 mm 7 mps 750 mmHg 67%
14:00 +6°C° 0 mm 7 mps 750 mmHg 66%
15:00 +6°C° 0 mm 7 mps 750 mmHg 65%
16:00 +5°C° 0 mm 6 mps 750 mmHg 64%
17:00 +4°C° 0 mm 6 mps 750 mmHg 69%
18:00 +3°C° 0 mm 5 mps 750 mmHg 74%
19:00 +3°C° 0 mm 4 mps 750 mmHg 79%
20:00 +3°C° 0 mm 4 mps 750 mmHg 82%
21:00 +2°C° 0 mm 3 mps 750 mmHg 86%
22:00 +3°C° 0 mm 2 mps 750 mmHg 89%
23:00 +2°C° 0 mm 2 mps 750 mmHg 91%

25 April, Sunday

Time Temperature Precipitation Wind Pressure Humidity
00:00 +2°C° 0 mm 2 mps 750 mmHg 92%
01:00 0°C° 0 mm 3 mps 750 mmHg 94%
02:00 0°C° 0.1 mm 3 mps 749 mmHg 94%
03:00 +1°C° 0.1 mm 3 mps 749 mmHg 94%
04:00 +1°C° 0.1 mm 3 mps 749 mmHg 94%
05:00 0°C° 0 mm 4 mps 749 mmHg 86%
06:00 +1°C° 0 mm 4 mps 749 mmHg 77%
07:00 +1°C° 0 mm 5 mps 749 mmHg 69%
08:00 +3°C° 0 mm 6 mps 749 mmHg 59%
09:00 +4°C° 0 mm 6 mps 749 mmHg 50%
10:00 +5°C° 0 mm 7 mps 749 mmHg 41%
11:00 +5°C° 0 mm 7 mps 749 mmHg 43%
12:00 +6°C° 0 mm 7 mps 749 mmHg 44%
13:00 +6°C° 0 mm 7 mps 749 mmHg 46%
14:00 +6°C° 0.1 mm 7 mps 749 mmHg 48%
15:00 +6°C° 0.1 mm 7 mps 749 mmHg 49%
16:00 +6°C° 0.1 mm 7 mps 749 mmHg 51%
17:00 +5°C° 0.1 mm 6 mps 749 mmHg 56%
18:00 +5°C° 0.1 mm 5 mps 749 mmHg 62%
19:00 +4°C° 0.1 mm 3 mps 749 mmHg 67%
20:00 +3°C° 0 mm 3 mps 749 mmHg 70%
21:00 +2°C° 0 mm 3 mps 749 mmHg 74%
22:00 +2°C° 0 mm 2 mps 749 mmHg 78%
23:00 +2°C° 0 mm 2 mps 749 mmHg 79%
Show more